Location: Bo?a Wola
(50.4192°N, 19.7966°E)
Time: 17:47:23
(UTC+00:00)

CZ-2C R/B - Visible Passes

Search period start: 12 May 2025 00:00
Search period end: 22 May 2025 00:00
Orbit: 781 x 868 km, 98.4° (Epoch: 12 May)

Date Brightness Start Highest point End Pass type
(mag) Time Alt. Az. Time Alt. Az. Time Alt. Az.
12 May 4.2 01:13:48 15° WSW 01:15:37 17° W 01:19:00 10° NW visible
12 May 5.1 21:34:41 10° ENE 21:36:15 11° NE 21:37:50 10° NNE visible
12 May 3.0 23:12:41 26° SE 23:15:27 56° ENE 23:20:31 10° N visible
13 May 3.8 00:54:09 20° WSW 00:56:01 24° W 01:00:13 10° NW visible
13 May 3.6 22:53:01 20° ESE 22:56:10 40° ENE 23:00:59 10° N visible
14 May 3.4 00:34:29 26° SW 00:36:28 34° W 00:41:11 10° NNW visible
14 May 4.1 22:33:22 14° ESE 22:36:57 29° ENE 22:41:22 10° N visible
15 May 2.9 00:14:49 31° SSW 00:17:00 48° W 00:22:01 10° NNW visible
15 May 4.5 22:13:53 10° ESE 22:17:47 22° ENE 22:21:40 10° N visible
15 May 2.5 23:55:09 32° S 23:57:33 69° WSW 00:02:43 10° NNW visible
16 May 4.6 01:37:38 10° W 01:38:45 11° W 01:39:53 10° WNW visible
16 May 4.9 21:55:32 10° E 21:58:39 16° NE 22:01:46 10° NNE visible
16 May 2.5 23:35:29 30° SSE 23:38:10 84° ENE 23:43:22 10° NNW visible
17 May 4.3 01:16:56 13° WSW 01:19:04 16° W 01:22:11 10° NW visible
17 May 5.1 21:37:40 10° ENE 21:39:35 12° NE 21:41:30 10° NNE visible
17 May 2.9 23:15:50 25° SE 23:18:49 60° ENE 23:23:55 10° N visible
18 May 3.9 00:57:17 17° SW 00:59:28 22° W 01:03:29 10° NW visible
18 May 3.5 22:56:10 19° SE 22:59:32 43° ENE 23:04:24 10° N visible
19 May 3.5 00:37:37 22° SW 00:39:54 31° W 00:44:30 10° NNW visible
19 May 4.0 22:36:30 13° ESE 22:40:18 31° ENE 22:44:49 10° N visible
20 May 3.0 00:17:57 27° SSW 00:20:24 45° W 00:25:22 10° NNW visible
20 May 4.4 22:17:07 10° ESE 22:21:07 23° ENE 22:25:07 10° N visible
20 May 2.6 23:58:17 28° S 00:00:57 64° WSW 00:06:06 10° NNW visible
21 May 4.8 21:58:42 10° E 22:02:00 17° NE 22:05:17 10° NNE visible
21 May 2.5 23:38:38 27° SSE 23:41:33 90° WSW 23:46:45 10° NNW visible
